When you browse on this site, cookies collect data to enhance your experience and personalize the content and advertising you see.
Visit our Privacy Policy to learn more. By continuing to use the site, you agree to this use of cookies and data.
  • In United Kingdom
  • List of Countries
  • For 7 days
  • Water Temperature
  • Weather Map
  • Weather Widgets
  • user-avatar
    Login

    Hourly Weather Jalalabad

    Today, 17 September, Tuesday

    Time Temperature Precipitation Wind Pressure Humidity
    00:00 +29°C° 0 mm 2 mps 707 mmHg 23%
    01:00 +28°C° 0 mm 2 mps 707 mmHg 21%
    02:00 +27°C° 0 mm 2 mps 707 mmHg 20%
    03:00 +27°C° 0 mm 2 mps 707 mmHg 20%
    04:00 +26°C° 0 mm 2 mps 707 mmHg 21%
    05:00 +25°C° 0 mm 2 mps 707 mmHg 21%
    06:00 +26°C° 0 mm 2 mps 708 mmHg 19%
    07:00 +27°C° 0 mm 2 mps 708 mmHg 17%
    08:00 +28°C° 0 mm 2 mps 709 mmHg 16%
    09:00 +30°C° 0 mm 2 mps 708 mmHg 14%
    10:00 +32°C° 0 mm 2 mps 708 mmHg 12%
    11:00 +34°C° 0 mm 2 mps 708 mmHg 9%
    12:00 +35°C° 0 mm 2 mps 708 mmHg 8%
    13:00 +35°C° 0 mm 1 mps 708 mmHg 7%
    14:00 +36°C° 0 mm 1 mps 707 mmHg 6%
    15:00 +38°C° 0 mm 2 mps 707 mmHg 6%
    16:00 +38°C° 0 mm 2 mps 707 mmHg 6%
    17:00 +38°C° 0 mm 2 mps 707 mmHg 6%
    18:00 +36°C° 0 mm 2 mps 707 mmHg 9%
    19:00 +33°C° 0 mm 1 mps 707 mmHg 11%
    20:00 +31°C° 0 mm 1 mps 708 mmHg 14%
    21:00 +29°C° 0 mm 0 mps 708 mmHg 16%
    22:00 +28°C° 0 mm 0 mps 708 mmHg 18%
    23:00 +27°C° 0 mm 0 mps 708 mmHg 20%

    Tomorrow, 18 September, Wednesday

    Time Temperature Precipitation Wind Pressure Humidity
    00:00 +27°C° 0 mm 0 mps 708 mmHg 22%
    01:00 +26°C° 0 mm 0 mps 708 mmHg 24%
    02:00 +25°C° 0 mm 0 mps 707 mmHg 26%
    03:00 +25°C° 0 mm 0 mps 708 mmHg 27%
    04:00 +25°C° 0 mm 0 mps 708 mmHg 27%
    05:00 +24°C° 0 mm 0 mps 708 mmHg 28%
    06:00 +26°C° 0 mm 0 mps 708 mmHg 23%
    07:00 +29°C° 0 mm 1 mps 709 mmHg 19%
    08:00 +31°C° 0 mm 1 mps 710 mmHg 15%
    09:00 +32°C° 0 mm 1 mps 710 mmHg 14%
    10:00 +34°C° 0 mm 1 mps 710 mmHg 13%
    11:00 +35°C° 0 mm 1 mps 710 mmHg 12%
    12:00 +36°C° 0 mm 1 mps 710 mmHg 12%
    13:00 +37°C° 0 mm 1 mps 709 mmHg 11%
    14:00 +39°C° 0 mm 1 mps 709 mmHg 11%
    15:00 +39°C° 0 mm 1 mps 709 mmHg 11%
    16:00 +39°C° 0 mm 1 mps 709 mmHg 10%
    17:00 +39°C° 0 mm 1 mps 709 mmHg 10%
    18:00 +36°C° 0 mm 1 mps 709 mmHg 13%
    19:00 +35°C° 0 mm 1 mps 709 mmHg 15%
    20:00 +31°C° 0 mm 0 mps 709 mmHg 18%
    21:00 +30°C° 0 mm 0 mps 709 mmHg 20%
    22:00 +30°C° 0 mm 0 mps 709 mmHg 22%
    23:00 +29°C° 0 mm 0 mps 709 mmHg 24%

    Day after tomorrow, 19 September, Thursday

    Time Temperature Precipitation Wind Pressure Humidity
    00:00 +28°C° 0 mm 0 mps 709 mmHg 25%
    01:00 +28°C° 0 mm 0 mps 709 mmHg 27%
    02:00 +27°C° 0 mm 0 mps 709 mmHg 29%
    03:00 +27°C° 0 mm 0 mps 709 mmHg 30%
    04:00 +26°C° 0 mm 0 mps 709 mmHg 30%
    05:00 +28°C° 0 mm 1 mps 709 mmHg 31%
    06:00 +29°C° 0 mm 1 mps 710 mmHg 28%
    07:00 +30°C° 0 mm 1 mps 710 mmHg 25%
    08:00 +32°C° 0 mm 1 mps 711 mmHg 22%
    09:00 +33°C° 0 mm 1 mps 711 mmHg 23%
    10:00 +35°C° 0 mm 2 mps 711 mmHg 24%
    11:00 +35°C° 0 mm 2 mps 711 mmHg 25%
    12:00 +36°C° 0 mm 2 mps 710 mmHg 23%
    13:00 +37°C° 0 mm 2 mps 710 mmHg 21%
    14:00 +38°C° 0 mm 3 mps 709 mmHg 18%
    15:00 +38°C° 0 mm 3 mps 709 mmHg 21%
    16:00 +37°C° 0 mm 4 mps 709 mmHg 23%
    17:00 +37°C° 0 mm 4 mps 709 mmHg 25%
    18:00 +36°C° 0 mm 3 mps 709 mmHg 30%
    19:00 +35°C° 0 mm 2 mps 710 mmHg 35%
    20:00 +32°C° 0 mm 1 mps 710 mmHg 41%
    21:00 +32°C° 0 mm 1 mps 710 mmHg 44%
    22:00 +31°C° 0 mm 1 mps 710 mmHg 47%
    23:00 +29°C° 0 mm 0 mps 710 mmHg 50%

    20 September, Friday

    Time Temperature Precipitation Wind Pressure Humidity
    00:00 +28°C° 0 mm 0 mps 710 mmHg 52%
    01:00 +28°C° 0 mm 0 mps 710 mmHg 54%
    02:00 +27°C° 0 mm 0 mps 709 mmHg 56%
    03:00 +27°C° 0 mm 0 mps 709 mmHg 54%
    04:00 +26°C° 0 mm 0 mps 709 mmHg 53%
    05:00 +26°C° 0 mm 0 mps 709 mmHg 52%
    06:00 +29°C° 0 mm 1 mps 709 mmHg 46%
    07:00 +29°C° 0 mm 1 mps 710 mmHg 39%
    08:00 +30°C° 0 mm 1 mps 710 mmHg 33%
    09:00 +31°C° 0 mm 1 mps 710 mmHg 29%
    10:00 +33°C° 0 mm 1 mps 710 mmHg 24%
    11:00 +34°C° 0 mm 1 mps 710 mmHg 20%
    12:00 +35°C° 0 mm 1 mps 709 mmHg 17%
    13:00 +36°C° 0 mm 1 mps 709 mmHg 15%
    14:00 +37°C° 0 mm 1 mps 708 mmHg 12%
    15:00 +38°C° 0 mm 2 mps 708 mmHg 12%
    16:00 +38°C° 0 mm 2 mps 708 mmHg 12%
    17:00 +38°C° 0 mm 3 mps 708 mmHg 12%
    18:00 +36°C° 0 mm 2 mps 708 mmHg 21%
    19:00 +35°C° 0 mm 2 mps 709 mmHg 31%
    20:00 +32°C° 0 mm 2 mps 709 mmHg 40%
    21:00 +31°C° 0 mm 1 mps 709 mmHg 43%
    22:00 +31°C° 0 mm 1 mps 709 mmHg 45%
    23:00 +29°C° 0 mm 0 mps 709 mmHg 48%

    21 September, Saturday

    Time Temperature Precipitation Wind Pressure Humidity
    00:00 +28°C° 0 mm 0 mps 709 mmHg 49%
    01:00 +27°C° 0 mm 0 mps 708 mmHg 50%
    02:00 +27°C° 0 mm 0 mps 708 mmHg 51%
    03:00 +26°C° 0 mm 0 mps 708 mmHg 50%
    04:00 +28°C° 0 mm 1 mps 708 mmHg 49%
    05:00 +28°C° 0 mm 1 mps 708 mmHg 48%
    06:00 +28°C° 0 mm 1 mps 709 mmHg 43%
    07:00 +29°C° 0 mm 1 mps 709 mmHg 39%
    08:00 +30°C° 0 mm 1 mps 709 mmHg 34%
    09:00 +31°C° 0 mm 1 mps 709 mmHg 33%
    10:00 +33°C° 0 mm 1 mps 709 mmHg 31%
    11:00 +34°C° 0 mm 1 mps 709 mmHg 29%
    12:00 +35°C° 0 mm 1 mps 708 mmHg 26%
    13:00 +36°C° 0 mm 1 mps 708 mmHg 22%
    14:00 +38°C° 0 mm 2 mps 707 mmHg 18%
    15:00 +38°C° 0 mm 2 mps 707 mmHg 18%
    16:00 +38°C° 0 mm 2 mps 707 mmHg 17%
    17:00 +38°C° 0 mm 2 mps 707 mmHg 17%
    18:00 +36°C° 0 mm 1 mps 707 mmHg 21%
    19:00 +34°C° 0 mm 1 mps 707 mmHg 24%
    20:00 +33°C° 0 mm 1 mps 708 mmHg 28%
    21:00 +32°C° 0 mm 1 mps 708 mmHg 32%
    22:00 +32°C° 0 mm 1 mps 708 mmHg 36%
    23:00 +31°C° 0 mm 1 mps 708 mmHg 40%

    22 September, Sunday

    Time Temperature Precipitation Wind Pressure Humidity
    00:00 +30°C° 0 mm 1 mps 708 mmHg 43%
    01:00 +30°C° 0 mm 1 mps 708 mmHg 45%
    02:00 +29°C° 0 mm 1 mps 708 mmHg 48%
    03:00 +29°C° 0 mm 1 mps 708 mmHg 50%
    04:00 +29°C° 0 mm 1 mps 708 mmHg 51%
    05:00 +28°C° 0 mm 1 mps 708 mmHg 53%
    06:00 +29°C° 0 mm 1 mps 708 mmHg 51%
    07:00 +30°C° 0 mm 1 mps 709 mmHg 48%
    08:00 +31°C° 0 mm 1 mps 709 mmHg 46%
    09:00 +32°C° 0 mm 1 mps 709 mmHg 43%
    10:00 +33°C° 0 mm 1 mps 709 mmHg 40%
    11:00 +35°C° 0 mm 2 mps 709 mmHg 38%
    12:00 +36°C° 0 mm 2 mps 709 mmHg 34%
    13:00 +37°C° 0 mm 2 mps 708 mmHg 30%
    14:00 +38°C° 0 mm 2 mps 708 mmHg 26%
    15:00 +38°C° 0 mm 2 mps 708 mmHg 25%
    16:00 +39°C° 0 mm 2 mps 708 mmHg 24%
    17:00 +39°C° 0 mm 2 mps 707 mmHg 23%
    18:00 +37°C° 0 mm 2 mps 708 mmHg 26%
    19:00 +35°C° 0 mm 1 mps 708 mmHg 30%
    20:00 +34°C° 0 mm 1 mps 708 mmHg 33%
    21:00 +33°C° 0 mm 1 mps 708 mmHg 37%
    22:00 +33°C° 0 mm 1 mps 709 mmHg 40%
    23:00 +32°C° 0 mm 1 mps 709 mmHg 43%
    Show more